Preview of NWS' New Version of Forecast
This preview is not operational and should not be used for support decisions.
Latest weather observations around

Prattville - Grouby Field (K1A9)

Using International System of Units (Switch to English Units)
Date/ Time (CST) Wind (kph) Vis. (km) Weather Sky Cond. Temp (°C) Rel. Humidity Wind Chill (°C) Heat Index (°C) Pressure Precip. (cm)
Air Dwpt 6 hour Altimeter (hPa) Sea level (hPa) 1 hr 3 hr 6 hr
Max Min
Jan 16 16:55 Calm 16.09 Clear CLR 12 2     49%     1024.4        
Jan 16 16:35 WSW 5 16.09 Clear CLR 13 1     45%     1024.4        
Jan 16 16:15 Calm 16.09 Clear CLR 13 1     44%     1024.4        
Jan 16 15:55 WSW 8 16.09 Clear CLR 14 1     43%     1024.4        
Jan 16 15:35 Calm 16.09 Clear CLR 14 1     43%     1024.4        
Jan 16 15:15 WSW 8 16.09 Clear CLR 13 1     43%     1024.4        
Jan 16 14:55 W 5 16.09 Clear CLR 13 1     43%     1024.1        
Jan 16 14:35 Calm 16.09 Clear CLR 13 1     43%     1024.4        
Jan 16 14:15 SW 8 16.09 Clear CLR 13 1     44%     1024.4        
Jan 16 13:55 SW 9 16.09 Clear CLR 13 1     44%     1024.4        
Jan 16 13:35 SSW 5 16.09 Clear CLR 13 1     45%     1024.7        
Jan 16 13:15 Calm 16.09 Clear CLR 12 1     45%     1024.7        
Jan 16 12:55 Calm 16.09 Clear CLR 12 1     47%     1025.1        
Jan 16 12:35 WNW 5 16.09 Clear CLR 11 1     49%     1025.4        
Jan 16 12:15 Calm 16.09 Clear CLR 11 0     49%     1025.7        
Jan 16 11:55 NW 5 16.09 Clear CLR 10 1     52%     1026.4        
Jan 16 11:35 N 5 16.09 Clear CLR 10 1     54% 9   1027.1        
Jan 16 11:15 Calm 16.09 Clear CLR 9 1     57%     1027.4        
Jan 16 10:55 WNW 5 16.09 Clear CLR 8 1     59% 8   1027.8        
Jan 16 10:35 Calm 16.09 Clear CLR 7 1     64%     1028.1        
Jan 16 10:15 Calm 16.09 Clear CLR 7 1     66%     1028.1        
Jan 16 09:55 WNW 8 16.09 Clear CLR 7 1     67% 5   1028.5        
Jan 16 09:35 NW 5 16.09 Clear CLR 5 1     71% 4   1028.1        
Jan 16 09:15 WNW 8 16.09 Clear CLR 5 1     75% 3   1027.8        
Jan 16 08:55 Calm 16.09 Clear CLR 4 1     81%     1027.8        
Jan 16 08:35 Calm 16.09 Clear CLR 2 0     87%     1027.4        
Jan 16 08:15 Calm 16.09 Clear CLR 1 0     95%     1027.4        
Jan 16 07:55 Calm 11.27 Clear CLR 0 0     100%     1027.1        
Jan 16 07:35 Calm 6.44 Fog/Mist CLR -1 -1     100%     1027.1        
Jan 16 07:15 Calm 8.05 Fog/Mist CLR -1 -1     100%     1026.8        
Jan 16 06:55 Calm 11.27 Clear CLR -1 -1     100%     1026.8        
Jan 16 06:35 Calm 8.05 Fog/Mist CLR -1 -1     100%     1026.4        
Jan 16 06:15 Calm 8.05 Fog/Mist CLR -1 -1     100%     1026.4        
Jan 16 05:55 Calm 11.27 Clear CLR -1 -1     100%     1026.4        
Jan 16 05:35 Calm 11.27 Clear CLR -1 -1     100%     1026.1        
Jan 16 05:15 Calm 16.09 Clear CLR 0 0     100%     1026.1        
Jan 16 04:55 Calm 16.09 Clear CLR 0 0     100%     1026.1        
Jan 16 04:35 Calm 16.09 Clear CLR 0 0     99%     1026.1        
Jan 16 04:15 Calm 16.09 Clear CLR 0 0     100%     1026.1        
Jan 16 03:55 Calm 16.09 Clear CLR 0 0     100%     1026.1        
Jan 16 03:35 Calm 16.09 Clear CLR 0 0     100%     1026.1        
Jan 16 03:15 Calm 16.09 Clear CLR 0 0     100%     1026.1        
Jan 16 02:55 Calm 16.09 Clear CLR 0 0     100%     1026.1        
Jan 16 02:35 Calm 11.27 Clear CLR 0 0     100%     1026.1        
Jan 16 02:15 Calm 16.09 Clear CLR 0 0     100%     1026.1        
Jan 16 01:55 Calm 16.09 Clear CLR 1 0     98%     1026.4        
Jan 16 01:35 Calm 16.09 Clear CLR 1 0     96%     1026.1        
Jan 16 01:15 Calm 16.09 Clear CLR 1 0     97%     1025.7        
Jan 16 00:55 Calm 16.09 Clear CLR 1 0     99%     1025.7        
Jan 16 00:35 Calm 16.09 Clear CLR 1 0     95%     1025.7        
Jan 16 00:15 Calm 16.09 Clear CLR 1 0     96%     1025.7        
Jan 15 23:55 Calm 16.09 Clear CLR 1 0     98%     1025.7        
Jan 15 23:35 Calm 16.09 Clear CLR 2 0     89%     1025.7        
Jan 15 23:15 Calm 16.09 Clear CLR 1 0     94%     1025.7        
Jan 15 22:55 NW 5 16.09 Clear CLR 2 0     90% 0   1026.1        
Jan 15 22:35 Calm 16.09 Clear CLR 2 0     91%     1026.1        
Jan 15 22:15 Calm 16.09 Clear CLR 2 0     89%     1026.4        
Jan 15 21:55 Calm 16.09 Clear CLR 2 0     88%     1026.1        
Jan 15 21:35 Calm 16.09 Clear CLR 2 1     94%     1026.1        
Jan 15 21:15 Calm 16.09 Clear CLR 1 1     95%     1026.1        
Jan 15 20:55 Calm 16.09 Clear CLR 1 1     97%     1026.1        
Jan 15 20:35 Calm 16.09 Clear CLR 2 1     92%     1026.1        
Jan 15 20:20 Calm 16.09 Clear CLR 1 0     93%     1026.1        
Jan 15 19:55 Calm 16.09 Clear CLR 2 0     87%     1026.1        
Jan 15 19:35 Calm 16.09 Clear CLR 3 1     87%     1026.1        
Jan 15 19:15 Calm 16.09 Clear CLR 3 1     81%     1026.1        
Jan 15 18:55 Calm 16.09 Clear CLR 4 1     80%     1026.1        
Jan 15 18:35 NW 5 16.09 Clear CLR 4 1     78% 3   1026.1        
Jan 15 18:15 NW 5 16.09 Clear CLR 4 1     79% 3   1026.1        
Jan 15 17:55 NW 5 16.09 Clear CLR 5 1     75% 3   1026.1        
Jan 15 17:35 WNW 5 16.09 Clear CLR 5 1     72% 4   1025.7        
Jan 15 17:15 NW 8 16.09 Clear CLR 6 1     69% 4   1025.7        
Jan 15 16:55 WNW 13 16.09 Clear CLR 6 1     66% 4   1025.7        
Jan 15 16:35 WNW 13 16.09 Clear CLR 8 1     63% 5   1025.7        
Jan 15 16:15 WNW 11 16.09 Clear CLR 8 1     60% 6   1025.4        
Jan 15 15:55 NNW 5 16.09 Clear CLR 8 0     58% 8   1025.4        
Jan 15 15:35 Calm 16.09 Clear CLR 8 0     58%     1025.1        
Jan 15 15:15 NNW 5 16.09 Clear CLR 8 1     58% 8   1025.1        
Jan 15 14:55 WNW 9 16.09 Clear CLR 8 0     57% 7   1025.1        
Jan 15 14:35 Calm 16.09 Clear CLR 8 0     58%     1025.4        
Jan 15 14:15 N 5 16.09 Partly Cloudy SCT029 8 1     59% 7   1025.7        
Jan 15 13:55 W 11 16.09 Mostly Cloudy BKN027 8 0     59% 6   1025.7        
Jan 15 13:35 NW 11 16.09 Cloudy OVC025 7 0     62% 5   1025.7        
Jan 15 13:15 WNW 9 16.09 Cloudy OVC025 7 1     66% 5   1025.7        
Jan 15 12:55 Calm 16.09 Cloudy OVC023 6 0     67%     1026.1        
Jan 15 12:35 Calm 16.09 Cloudy OVC023 6 0     67%     1026.1        
Jan 15 12:15 NW 11 16.09 Cloudy OVC023 6 0     68% 3   1026.8        
Jan 15 11:55 NNE 8 16.09 Cloudy OVC023 6 0     70% 4   1027.1        
Jan 15 11:35 NNW 5 16.09 Cloudy OVC021 5 0     70% 4   1027.4        
Jan 15 11:15 NNW 5 16.09 Cloudy OVC021 5 0     71% 4   1027.8        
Jan 15 10:55 NNE 8 16.09 Cloudy OVC021 5 0     71% 3   1028.1        
Jan 15 10:35 Calm 16.09 Clear   5 0     72%     1028.5        
Jan 15 10:15 N 5 16.09 Clear   5 0     72% 4   1028.5        
Jan 15 09:55 N 9 16.09 Clear   5 0     72% 2   1028.5        
Jan 15 09:35 NW 9 16.09 Cloudy OVC021 5 0     73% 2   1028.1        
Jan 15 09:15 N 9 16.09 Cloudy OVC021 5 0     73% 2   1028.1        
Jan 15 08:55 N 9 16.09 Cloudy OVC021 4 0     74% 2   1027.8        
Jan 15 08:35 NW 11 16.09 Cloudy OVC019 4 0     75% 1   1027.4        
Jan 15 08:15 NW 8 16.09 Cloudy OVC019 4 0     76% 2   1027.1        
Jan 15 07:55 NW 9 16.09 Cloudy OVC019 4 1     77% 2   1027.1        
Jan 15 07:35 NW 13 16.09 Cloudy OVC019 4 0     77% 1   1026.8        
Jan 15 07:15 NW 5 16.09 Cloudy OVC019 4 1     78% 3   1026.8        
Jan 15 06:55 Calm 16.09 Cloudy OVC021 4 1     79%     1026.8        
Jan 15 06:35 NW 9 16.09 Cloudy OVC021 4 1     78% 2   1027.1        
Jan 15 06:15 NW 8 16.09 Cloudy OVC021 4 1     78% 2   1026.8        
Jan 15 05:55 NW 9 16.09 Cloudy OVC021 4 0     78% 1   1026.8        
Jan 15 05:35 NW 9 16.09 Cloudy OVC021 4 1     80% 1   1026.8        
Jan 15 05:15 NW 8 16.09 Cloudy OVC021 4 1     80% 2   1026.4        
Jan 15 04:55 Calm 16.09 Cloudy OVC023 4 1     82%     1026.1        
Jan 15 04:35 W 8 16.09 Cloudy OVC025 4 1     82% 2   1026.1        
Jan 15 04:15 WNW 5 16.09 Cloudy OVC025 4 1     82% 2   1026.1        
Jan 15 03:55 WNW 5 16.09 Cloudy OVC027 3 1     84% 2   1026.4        
Jan 15 03:35 Calm 16.09 Cloudy OVC029 3 1     85%     1026.4        
Jan 15 03:15 Calm 16.09 Cloudy OVC031 3 1     89%     1026.8        
Jan 15 02:55 Calm 16.09 Cloudy OVC031 2 1     90%     1026.8        
Jan 15 02:35 Calm 16.09 Cloudy OVC031 2 1     89%     1026.8        
Jan 15 02:15 Calm 16.09 Mostly Cloudy BKN031 3 0     83%     1026.8        
Jan 15 01:55 Calm 16.09 Clear CLR 3 0     81%     1026.8        
Jan 15 01:35 NNW 5 16.09 Partly Cloudy SCT018 3 0     78% 2   1026.8        
Jan 15 01:15 NNW 9 16.09 Cloudy OVC018 4 0     76% 2   1026.8        
Jan 15 00:55 NNW 9 16.09 Cloudy OVC018 4 0     76% 2   1026.8        
Jan 15 00:35 NNW 11 16.09 Cloudy OVC018 4 0     77% 1   1026.8        
Jan 15 00:15 NNW 11 16.09 Cloudy OVC018 4 0     77% 1   1026.8        
Jan 14 23:55 NW 11 16.09 Cloudy OVC018 4 0     77% 1   1026.8        
Jan 14 23:35 N 17 16.09 Cloudy OVC020 4 0     77% 0   1026.8        
Jan 14 23:15 N 11 16.09 Cloudy OVC020 4 1     76% 2   1026.8        
Jan 14 22:55 N 15 16.09 Cloudy OVC020 5 1     76% 1   1027.1        
Jan 14 22:35 N 9 16.09 Cloudy OVC018 5 1     76% 2   1027.1        
Jan 14 22:15 NNW 11 16.09 Cloudy OVC018 5 1     76% 2   1027.1        
Jan 14 21:55 NNW 13 16.09 Cloudy OVC018 5 2     79% 2   1026.8        
Jan 14 21:35 NNW 8 16.09 Cloudy OVC018 5 2     78% 3   1026.8        
Jan 14 21:15 N 5 16.09 Cloudy OVC018 5 2     78% 4   1026.8        
Jan 14 20:55 N 9 16.09 Cloudy OVC018 5 2     78% 3   1026.4        
Jan 14 20:35 NNW 11 16.09 Cloudy OVC018 5 2     78% 3   1026.4        
Jan 14 20:15 NNW 13 16.09 Cloudy OVC018 5 2     78% 2   1026.4        
Jan 14 19:55 NNW 11 16.09 Cloudy OVC018 5 2     79% 3   1026.1        
Jan 14 19:35 NW 11 16.09 Cloudy OVC018 5 2     79% 3   1026.1        
Jan 14 19:15 NNW 9 16.09 Cloudy OVC018 5 2     79% 3   1026.1        
Jan 14 18:55 NNW 15 16.09 Cloudy OVC018 5 2     79% 2   1026.1        
Jan 14 18:35 NNW 15 16.09 Cloudy OVC018 6 2     79% 2   1026.4        
Jan 14 18:15 N 8 16.09 Cloudy OVC018 6 3     79% 4   1026.1        
Jan 14 17:55 NNW 9 16.09 Cloudy OVC018 6 3     79% 4   1026.1        
Jan 14 17:35 NNW 8 16.09 Cloudy OVC018 6 3     78% 5   1026.1        
Jan 14 17:15 NW 9 16.09 Cloudy OVC020 6 3     78% 4   1025.7        
Jan 14 16:55 N 9 16.09 Cloudy OVC020 6 3     78% 4   1025.7        
Jan 14 16:35 NNW 15 16.09 Cloudy OVC020 7 3     78% 4   1025.7        
Jan 14 16:15 WNW 11 16.09 Cloudy OVC020 7 3     79% 4   1025.4        
Jan 14 15:55 NW 11 16.09 Cloudy OVC020 7 3     78% 5   1025.4        
Jan 14 15:35 NW 15 16.09 Cloudy BKN022 BKN027 OVC038 7 3     75% 5   1025.4        
Jan 14 15:15 NW 15 16.09 Cloudy OVC022 7 3     74% 5   1025.4        
Jan 14 14:55 WNW 11 16.09 Cloudy OVC022 7 3     74% 5   1025.4        
Jan 14 14:35 WNW 11 16.09 Cloudy OVC022 7 3     73% 5   1025.7        
Jan 14 14:15 WNW 11 16.09 Cloudy OVC022 7 3     73% 5   1025.7        
Jan 14 13:55 WNW 11 16.09 Cloudy OVC020 7 3     75% 5   1025.7        
Jan 14 13:35 NW 11 16.09 Cloudy OVC020 7 3     76% 4   1025.7        
Jan 14 13:15 NW 8 16.09 Cloudy OVC018 6 3     78% 5   1025.7        
Jan 14 12:55 WNW 13 16.09 Cloudy OVC016 6 3     79% 3   1026.1        
Jan 14 12:35 NW 11 16.09 Cloudy OVC016 6 3     80% 3   1026.1        
Jan 14 12:15 NW 11 16.09 Cloudy OVC014 6 3     83% 3   1026.4        
Jan 14 11:55 WNW 11 16.09 Cloudy OVC014 6 3     84% 3   1026.8        
Jan 14 11:35 NW 11 16.09 Cloudy OVC014 6 3     83% 3   1027.1        
Jan 14 11:15 NW 5 16.09 Cloudy OVC014 5 3     83% 4   1027.4        
Jan 14 10:55 NW 8 16.09 Cloudy OVC014 6 3     83% 4   1027.8        
Jan 14 10:35 NNW 9 16.09 Cloudy OVC014 5 3     85% 3   1028.1        
Jan 14 10:15 N 9 16.09 Cloudy OVC014 5 3     86% 3   1028.1        
Jan 14 09:55 WNW 13 16.09 Cloudy OVC014 5 3     86% 2   1028.5        
Jan 14 09:35 N 9 16.09 Cloudy OVC014 5 3     85% 3   1028.5        
Jan 14 09:15 NNW 8 16.09 Cloudy OVC014 5 3     86% 4   1028.1        
Jan 14 08:55 N 9 16.09 Cloudy OVC014 5 3     86% 3   1027.8        
Jan 14 08:35 NNW 8 16.09 Cloudy OVC014 5 3     86% 4   1027.8        
Jan 14 08:15 N 11 16.09 Cloudy OVC014 5 3     86% 3   1027.4        
Jan 14 07:55 NNW 9 16.09 Cloudy OVC014 5 3     86% 3   1027.1        
Jan 14 07:35 NNW 11 16.09 Cloudy OVC014 5 3     86% 3   1027.1        
Jan 14 07:15 NW 5 16.09 Cloudy OVC014 5 3     88% 4   1027.1        
Jan 14 06:55 WNW 5 16.09 Cloudy OVC014 5 3     88% 4   1027.1        
Jan 14 06:35 NW 13 16.09 Cloudy OVC014 5 3     86% 2   1026.8        
Jan 14 06:15 NW 8 16.09 Cloudy OVC016 5 3     87% 4   1026.8        
Jan 14 05:55 NW 11 16.09 Cloudy OVC016 5 3     86% 3   1026.8        
Jan 14 05:35 NW 9 16.09 Cloudy OVC016 6 3     85% 3   1026.8        
Jan 14 05:15 WNW 8 16.09 Cloudy OVC016 6 3     85% 4   1026.4        
Jan 14 04:55 NW 9 16.09 Cloudy OVC016 6 3     85% 3   1026.1        
Jan 14 04:35 NW 8 16.09 Cloudy OVC016 6 3     84% 4   1026.1        
Jan 14 04:15 WNW 9 16.09 Cloudy OVC016 6 3     85% 4   1026.1        
Jan 14 03:55 WNW 11 16.09 Cloudy OVC018 6 3     84% 3   1026.1        
Jan 14 03:35 WNW 11 16.09 Cloudy OVC018 6 3     84% 3   1026.1        
Jan 14 03:15 WNW 8 16.09 Cloudy OVC016 6 3     84% 4   1026.1        
Jan 14 02:55 NNW 11 16.09 Cloudy OVC016 6 3     83% 3   1026.1        
Jan 14 02:35 WNW 8 16.09 Cloudy OVC016 6 3     84% 4   1026.1        
Jan 14 02:15 NW 11 16.09 Cloudy OVC016 6 3     83% 3   1026.1        
Jan 14 01:55 NW 13 16.09 Cloudy OVC016 6 3     84% 3   1025.7        
Jan 14 01:35 WNW 8 16.09 Cloudy OVC016 6 4     85% 4   1025.7        
Jan 14 01:15 NW 15 16.09 Cloudy OVC016 6 4     85% 3   1025.4        
Jan 14 00:55 NW 8 16.09 Cloudy OVC016 7 4     84% 5   1025.1        
Jan 14 00:35 WNW 8 16.09 Cloudy OVC018 7 4     83% 5   1025.1        
Jan 14 00:15 NNW 13 16.09 Cloudy OVC018 7 4     82% 4   1025.1        
Jan 13 23:55 NNW 13 16.09 Cloudy OVC020 7 4     82% 4   1025.1        
Jan 13 23:35 NW 5 16.09 Cloudy OVC020 7 4     80% 6   1025.4        
Jan 13 23:15 NNW 8 16.09 Cloudy OVC020 7 4     78% 6   1025.4        
Jan 13 22:55 NW 11 16.09 Cloudy OVC020 7 4     80% 5   1025.4        
Jan 13 22:35 NW 8 16.09 Cloudy OVC020 7 4     79% 6   1025.4        
Jan 13 22:15 WNW 8 16.09 Cloudy OVC022 7 4     79% 6   1025.4        
Jan 13 21:55 WNW 9 16.09 Cloudy OVC022 7 4     78% 5   1025.7        
Jan 13 21:35 WNW 11 16.09 Cloudy OVC022 7 4     80% 5   1025.4        
Jan 13 21:15 NW 5 16.09 Cloudy OVC022 8 4     78% 7   1025.4        
Jan 13 20:55 NW 5 16.09 Cloudy OVC022 8 4     78% 7   1025.4        
Jan 13 20:35 NW 8 16.09 Cloudy OVC024 8 4     76% 6   1025.1        
Jan 13 20:15 NW 15 16.09 Cloudy OVC026 8 4     75% 5   1025.1        
Jan 13 19:55 WNW 8 16.09 Cloudy OVC026 8 4     77% 6   1025.1        
Jan 13 19:35 WNW 13 16.09 Cloudy OVC026 8 4     75% 6   1024.7        
Jan 13 19:15 WNW 11 16.09 Cloudy OVC028 8 4     74% 6   1024.7        
Jan 13 18:55 WNW 11 16.09 Cloudy SCT025 OVC032 8 4     74% 6   1024.4        
Jan 13 18:35 WNW 18 16.09 Cloudy BKN028 OVC032 9 5     76% 6   1024.4        
Jan 13 18:15 WNW 15 16.09 Cloudy OVC029 9 6     79% 7   1024.1        
Jan 13 17:55 WNW 11 16.09 Cloudy OVC033 9 6     79% 7   1023.7        
Jan 13 17:35 WNW 9 16.09 Cloudy OVC033 9 6     80% 8   1023.4        
Jan 13 17:15 WNW 9 16.09 Cloudy OVC033 9 6     81% 8   1023.4        
Jan 13 16:55 WNW 8 16.09 Cloudy OVC031 9 6     79% 8   1023        
May 15 12:15 ESE 9 16.09 Mostly Cloudy BKN039 BKN046 29 19     54%   30 1014.6        
May 15 11:15 ESE 13 16.09 Partly Cloudy SCT035 SCT120 28 19     59%   29 1015.2        
May 15 03:55 Calm 16.09 Clear CLR 19 18     98%     1014.6        
May 15 02:15 Calm 16.09 Clear CLR 19 19     99%     1013.9        
Notice The following observation data may not be complete
May 14 14:35   16.09 Partly Cloudy SCT080          %              
May 14 06:55 Calm 16.09 Clear CLR 17 17     98%     1016.6        
May 13 19:15 Calm 16.09 Clear CLR 27 18     59%   28 1015.9        
May 13 13:55 NW 8 16.09 Clear CLR 33 14     33%   32 1018.3        
May 13 07:55 Calm 16.09 Clear CLR 22 15     67%   22 1020        
Notice The following observation data may not be complete
May 13 06:55 Calm 16.09 Clear CLR   16      %     1019.7        
May 12 15:35 NE 5 16.09 Clear CLR 33 13     30%   32 1018.6        
May 12 13:15 Calm 16.09 Clear CLR 31 11     28%   30 1020        
May 12 08:55 Calm 16.09 Clear CLR 24 16     62%   24 1021.7        
May 12 03:35 Calm 16.09 Clear CLR 15 15     98%     1019        
May 12 02:55 Calm 16.09 Clear   15 15     99%     1018.6        
May 12 00:35 Calm 16.09 Clear CLR 17 16     93%     1019        
Notice The following observation data may not be complete
May 11 21:35 Calm 16.09 Clear CLR   18      %     1018.6        
Notice The following observation data may not be complete
May 11 20:55 Calm 16.09 Clear CLR   19      %     1018.3        
May 11 15:15 S 5 16.09 Clear CLR 31 14     37%   31 1018        
May 11 10:55 W 5 16.09 Clear CLR 28 18     55%   29 1021        
Jun 12 07:15 ENE 5 16.09 Partly Cloudy SCT011 SCT019 23 22     95%   24 1020.7        
Jun 12 04:55 Calm 16.09 Clear CLR 21 21     100%     1019.7        
Notice The following observation data may not be complete
Jun 12 03:35   16.09 Clear CLR          %              
Jun 12 02:55 Calm 16.09 Clear CLR 22 22     100%   22 1019.7        
Jun 12 02:35 Calm 16.09 Partly Cloudy SCT080 22 22     100%   23 1019.7        
Jun 11 22:55 Calm 16.09 Partly Cloudy SCT100 24 23     92%   25 1020.3        
Notice The following observation data may not be complete
Jun 11 22:15   16.09 Clear CLR          %              
Jun 11 18:15 Calm 16.09 Clear CLR 27 22     75%   29 1018        
Jun 11 14:35 E 17 16.09 Partly Cloudy SCT050 SCT065 32 21     52%   35 1019        
Jun 11 11:55 SE 15 16.09 Partly Cloudy SCT038 30 21     59%   33 1020.3        
Jun 11 02:35 Calm 16.09 Partly Cloudy SCT055 SCT065 19 18     97%     1018        
Jun 10 18:35 SE 8 16.09 Partly Cloudy SCT080 29 18     51%   30 1016.3        
Jun 10 12:55 SSE 9 16.09 Partly Cloudy SCT055 SCT075 28 16     47%   29 1018.3        
Jun 10 11:15 S 8 16.09 Clear CLR 29 17     48%   29 1018.6        
Jun 10 08:15 Calm 16.09 Clear CLR 24 20     81%   24 1018        
Jun 10 03:55 Calm 16.09 Mostly Cloudy SCT065 BKN075 19 18     96%     1015.6        
Notice The following observation data may not be complete
Jun 09 22:35   16.09 Mostly Cloudy BKN060 BKN075          %              
Jun 09 16:55 Calm 16.09 Partly Cloudy SCT075 29 15     43%   29 1012.9        
Jun 09 06:15 Calm 16.09 Clear CLR 16 16     100%     1013.6        
Notice The following observation data may not be complete
Jun 09 02:35   16.09 Clear CLR          %              
Jun 08 13:55 Calm 16.09 Mostly Cloudy SCT060 SCT070 BKN080 26 15     50%   26 1011.9        
Jun 08 07:55 Calm 16.09 Partly Cloudy SCT002 21 16     75%     1012.5        
Jun 08 07:15 Calm 16.09 Clear CLR 18 15     82%     1012.5        
Jun 08 03:15 Calm 16.09 Mostly Cloudy BKN060 18 14     76%     1010.2        
Jun 07 22:35 N 5 16.09 Cloudy SCT060 OVC090 22 16     72%   22 1010.8        
Jun 07 15:15 Calm 16.09 Cloudy BKN039 BKN044 OVC085 27 20     68%   29 1007.8        
Jun 07 14:55 E 21 16.09 Mostly Cloudy SCT037 BKN043 BKN048 28 21     65%   30 1007.8        
Jun 07 10:55 ENE 15 16.09 Clear   26 20     67%   27 1008.1        
Jun 07 07:35 NNE 5 16.09 Clear CLR 21 19     89%     1008.1        
Notice The following observation data may not be complete
Jun 06 08:35   16.09 Cloudy OVC006          %              
Notice The following observation data may not be complete
Jun 06 06:35   16.09 Cloudy SCT006 BKN024 OVC110          %              
Jun 05 15:15 S 8 16.09 Partly Cloudy SCT033 SCT060 SCT100 24 22     90%   25 1008.8        
Jun 05 14:35 S 8 16.09 Light Rain BKN100 BKN120 24 22     89%   25 1009.5